DW2485 Weather Reports


Display with metric or nautical units.
time (UTC)temp
F
wind
direction
speed
MPH
gust
MPH
rain 1hr
in
rain 24hr
in
rain mn
in
humidity
%
barometer
mb
20260901014505 77 190 1.0 1.0 0.00 0.00 0.00 89 1014.6
20260901014005 78 190 0.0 2.0 0.00 0.00 0.00 88 1014.6
20260901013506 79 190 1.0 2.0 0.00 0.00 0.00 86 1014.6
20260901012505 79 190 0.0 2.0 0.00 0.00 0.00 87 1014.5
20260901012006 79 190 0.0 1.0 0.00 0.00 0.00 85 1014.4
20260901011505 80 190 1.0 1.0 0.00 0.00 0.00 85 1014.3
20260901011005 80 190 0.0 1.0 0.00 0.00 0.00 83 1014.2
20260901010006 80 190 1.0 2.0 0.00 0.00 0.00 83 1014.2
20260901005006 81 199 2.0 3.0 0.00 0.00 0.00 83 1014.0
20260901004505 81 173 3.0 5.0 0.00 0.00 0.00 82 1014.1
20260901002506 83 230 2.0 3.0 0.00 0.00 0.00 79 1014.1
20260901001006 84 197 3.0 3.0 0.00 0.00 0.00 77 1013.9
20260831233505 86 194 5.0 8.0 0.00 0.00 0.00 74 1013.9
20260831233006 87 191 5.0 7.0 0.00 0.00 0.00 74 1014.0
20260831231505 86 192 6.0 9.0 0.00 0.00 0.00 73 1013.9
20260831231005 87 188 3.0 7.0 0.00 0.00 0.00 72 1013.8
20260831225006 87 188 3.0 10.0 0.00 0.00 0.00 71 1013.8
20260831224505 87 195 6.0 10.0 0.00 0.00 0.00 71 1013.7
20260831224005 88 197 5.0 9.0 0.00 0.00 0.00 71 1013.7
20260831223505 88 189 3.0 9.0 0.00 0.00 0.00 71 1013.6
20260831223005 88 186 6.0 9.0 0.00 0.00 0.00 72 1013.6
20260831222005 87 193 4.0 9.0 0.00 0.00 0.00 71 1013.6
20260831220005 88 177 6.0 12.0 0.00 0.00 0.00 69 1013.4
20260831215505 89 187 7.0 12.0 0.00 0.00 0.00 68 1013.3
20260831213005 88 163 9.0 12.0 0.00 0.00 0.00 70 1013.4
20260831212005 88 169 5.0 7.0 0.00 0.00 0.00 71 1013.6
20260831211005 88 193 5.0 8.0 0.00 0.00 0.00 69 1013.7
20260831210505 88 211 3.0 6.0 0.00 0.00 0.00 69 1013.7
20260831205505 91 190 4.0 9.0 0.00 0.00 0.00 65 1013.8
20260831204504 91 196 3.0 5.0 0.00 0.01 0.00 68 1013.9
20260831203505 89 194 2.0 5.0 0.00 0.02 0.00 68 1013.7
20260831203005 87 169 3.0 6.0 0.00 0.03 0.00 69 1013.7
20260831202505 88 189 5.0 8.0 0.00 0.05 0.00 67 1014.0
20260831201505 91 171 3.0 9.0 0.00 0.11 0.00 66 1013.6
20260831201005 91 198 5.0 7.0 0.00 0.12 0.00 66 1013.6
20260831200505 91 190 5.0 8.0 0.00 0.13 0.00 65 1013.6
20260831200005 91 237 2.0 6.0 0.00 0.14 0.00 65 1013.9
20260831195505 91 225 3.0 7.0 0.00 0.16 0.00 65 1014.0
20260831194005 89 186 6.0 8.0 0.00 0.19 0.00 65 1013.9
20260831192505 90 203 5.0 8.0 0.00 0.23 0.00 65 1014.1
20260831191005 89 211 4.0 7.0 0.00 0.24 0.00 67 1014.2
20260831190005 90 181 5.0 8.0 0.00 0.24 0.00 65 1014.1
20260831185505 89 208 5.0 8.0 0.00 0.24 0.00 66 1014.1
20260831184504 89 235 2.0 6.0 0.00 0.24 0.00 65 1014.0
20260831183505 89 235 3.0 6.0 0.00 0.24 0.00 67 1013.9
20260831182005 87 189 4.0 6.0 0.00 0.24 0.00 68 1014.2
20260831181005 88 215 2.0 6.0 0.00 0.24 0.00 66 1014.2
20260831180005 88 190 4.0 6.0 0.00 0.25 0.00 64 1014.0
20260831175504 90 230 3.0 8.0 0.00 0.25 0.00 65 1014.0
20260831175005 89 283 7.0 10.0 0.00 0.25 0.00 63 1014.4
20260831173505 89 248 7.0 12.0 0.00 0.26 0.00 64 1014.6
20260831173005 89 264 8.0 12.0 0.00 0.27 0.00 65 1014.3
20260831172004 87 252 6.0 12.0 0.00 0.28 0.00 65 1014.5
20260831171505 87 242 7.0 12.0 0.00 0.28 0.00 66 1014.5
20260831170004 87 209 6.0 10.0 0.00 0.30 0.00 66 1014.5
20260831165005 87 217 6.0 9.0 0.00 0.32 0.00 65 1014.6
20260831164505 87 217 5.0 13.0 0.00 0.32 0.00 66 1014.7
20260831164004 86 228 8.0 12.0 0.00 0.33 0.00 67 1014.7
20260831163005 86 226 9.0 13.0 0.00 0.33 0.00 66 1014.7
20260831162504 85 236 6.0 15.0 0.00 0.33 0.00 67 1014.7
20260831161505 86 236 6.0 12.0 0.00 0.33 0.00 68 1014.8
20260831161005 84 224 7.0 13.0 0.00 0.33 0.00 66 1014.7
20260831155005 84 226 7.0 13.0 0.00 0.33 0.00 68 1014.4
20260831154504 84 242 5.0 14.0 0.00 0.33 0.00 69 1014.2
20260831153505 84 217 9.0 16.0 0.00 0.33 0.00 67 1014.2
20260831153004 83 216 8.0 17.0 0.00 0.33 0.00 68 1014.0
20260831152504 84 231 12.0 16.0 0.00 0.33 0.00 66 1014.1
20260831152004 84 213 5.0 14.0 0.00 0.33 0.00 70 1014.1
20260831150504 83 235 6.0 10.0 0.00 0.33 0.00 73 1013.9
20260831145004 81 205 6.0 12.0 0.00 0.33 0.00 72 1013.6
20260831144005 81 209 6.0 10.0 0.00 0.33 0.00 73 1013.7
20260831143504 81 206 6.0 12.0 0.00 0.33 0.00 73 1013.6
20260831141004 79 206 2.0 7.0 0.00 0.33 0.00 77 1013.5
20260831140505 79 196 4.0 8.0 0.00 0.33 0.00 76 1013.6
20260831140004 78 207 5.0 9.0 0.00 0.33 0.00 78 1013.7
20260831135005 78 192 5.0 8.0 0.00 0.33 0.00 77 1013.6
20260831133504 77 207 6.0 10.0 0.00 0.33 0.00 78 1013.5
20260831133005 77 216 5.0 7.0 0.00 0.33 0.00 79 1013.6
20260831132504 76 200 4.0 8.0 0.00 0.33 0.00 80 1013.6
20260831132004 76 207 4.0 8.0 0.00 0.33 0.00 80 1013.6
20260831131505 75 199 6.0 12.0 0.00 0.33 0.00 81 1013.6
20260831130005 74 209 5.0 10.0 0.00 0.33 0.00 82 1013.6
20260831125005 74 194 6.0 9.0 0.00 0.33 0.00 82 1013.5
20260831124504 74 195 5.0 9.0 0.00 0.33 0.00 83 1013.5
20260831123035 73 198 7.0 12.0 0.00 0.33 0.00 83 1013.5
20260831121504 72 206 5.0 10.0 0.00 0.33 0.00 84 1013.4
20260831121004 72 197 4.0 7.0 0.00 0.33 0.00 84 1013.3
20260831120504 72 209 4.0 7.0 0.00 0.33 0.00 84 1013.2
20260831115505 72 214 4.0 9.0 0.00 0.33 0.00 83 1013.2
20260831114504 72 189 7.0 12.0 0.00 0.33 0.00 83 1013.0
20260831114004 72 190 6.0 10.0 0.00 0.33 0.00 83 1013.0
20260831112505 73 195 6.0 12.0 0.00 0.33 0.00 82 1013.1
20260831111004 73 188 7.0 10.0 0.00 0.33 0.00 82 1013.1
20260831110504 73 184 5.0 12.0 0.00 0.33 0.00 82 1013.2
20260831105504 73 180 6.0 10.0 0.00 0.33 0.00 81 1013.3
20260831105004 73 195 7.0 10.0 0.00 0.33 0.00 81 1013.3
20260831104505 73 206 5.0 12.0 0.00 0.33 0.00 81 1013.4
20260831104005 73 192 6.0 9.0 0.00 0.33 0.00 81 1013.3
20260831102504 73 194 6.0 9.0 0.00 0.33 0.00 81 1013.4
20260831102004 73 184 6.0 10.0 0.00 0.33 0.00 82 1013.4
20260831101504 73 183 5.0 12.0 0.00 0.33 0.00 82 1013.5
20260831101004 73 193 4.0 9.0 0.00 0.33 0.00 82 1013.5
20260831100504 73 196 5.0 9.0 0.00 0.33 0.00 82 1013.4
20260831100004 73 182 6.0 10.0 0.00 0.33 0.00 82 1013.5
20260831095503 73 198 5.0 7.0 0.00 0.33 0.00 82 1013.4
20260831092504 73 186 6.0 12.0 0.00 0.33 0.00 82 1013.4
20260831085504 72 180 5.0 9.0 0.00 0.33 0.00 83 1013.6
20260831085005 72 177 5.0 12.0 0.00 0.33 0.00 83 1013.6
20260831084504 72 185 6.0 12.0 0.00 0.33 0.00 84 1013.6
20260831082504 71 161 3.0 6.0 0.00 0.33 0.00 85 1013.5
20260831082004 71 159 2.0 5.0 0.00 0.33 0.00 85 1013.5
20260831080004 72 175 5.0 7.0 0.00 0.33 0.00 85 1013.3
20260831075004 72 163 5.0 7.0 0.00 0.33 0.00 85 1013.3
20260831074504 72 165 4.0 6.0 0.00 0.33 0.00 85 1013.3
20260831074004 72 169 5.0 8.0 0.00 0.33 0.00 85 1013.3
20260831071004 72 158 5.0 8.0 0.00 0.33 0.00 86 1013.7
20260831065504 73 147 5.0 10.0 0.00 0.33 0.00 85 1013.8
20260831065004 73 144 6.0 9.0 0.00 0.33 0.00 85 1013.9
20260831064504 73 142 6.0 8.0 0.00 0.33 0.00 86 1013.9
20260831064003 73 135 5.0 8.0 0.00 0.33 0.00 86 1013.9
20260831063004 73 130 5.0 9.0 0.00 0.33 0.00 86 1014.1
20260831061504 73 139 7.0 10.0 0.00 0.33 0.00 86 1014.1
20260831061004 73 135 7.0 9.0 0.00 0.33 0.00 86 1014.2
20260831055504 73 137 5.0 8.0 0.00 0.33 0.00 87 1014.1
20260831054004 73 134 4.0 8.0 0.00 0.33 0.00 87 1014.1
20260831053004 73 140 6.0 9.0 0.00 0.33 0.00 88 1014.2
20260831052503 73 133 3.0 3.0 0.00 0.33 0.00 88 1014.1
20260831051504 73 146 4.0 7.0 0.00 0.33 0.00 88 1014.2
20260831051004 73 146 5.0 7.0 0.00 0.33 0.00 88 1014.1
20260831050504 74 133 6.0 9.0 0.00 0.33 0.00 88 1014.1
20260831050004 73 143 5.0 12.0 0.00 0.33 0.00 88 1014.2
20260831044504 73 145 5.0 8.0 0.00 0.33 0.33 89 1014.2
20260831043006 73 133 5.0 7.0 0.00 0.33 0.33 90 1014.2
20260831041006 73 143 5.0 9.0 0.00 0.33 0.33 90 1014.2
20260831040005 73 134 7.0 12.0 0.00 0.33 0.33 90 1014.2
20260831035506 73 132 7.0 10.0 0.00 0.33 0.33 90 1014.2
20260831035006 73 135 6.0 9.0 0.00 0.33 0.33 90 1014.4
20260831034505 73 134 7.0 12.0 0.00 0.33 0.33 91 1014.5
20260831034006 73 138 5.0 12.0 0.00 0.33 0.33 91 1014.5
20260831033505 73 123 8.0 10.0 0.00 0.33 0.33 91 1014.4
20260831032506 72 127 6.0 9.0 0.00 0.33 0.33 92 1014.7
20260831031505 72 127 6.0 9.0 0.00 0.33 0.33 92 1014.8
20260831031006 72 125 6.0 8.0 0.00 0.33 0.33 92 1014.8
20260831025505 72 119 3.0 6.0 0.00 0.33 0.33 92 1015.0
20260831024006 72 95 5.0 7.0 0.00 0.34 0.33 92 1014.9
20260831021505 73 103 5.0 6.0 0.00 0.35 0.33 90 1014.9
20260831021005 73 108 6.0 9.0 0.00 0.35 0.33 90 1014.8